Radiation Dose at Monitoring Post of Fukushima Daini Nuclear Power Station
Date,Time,MP-1(microSv/h),MP-2(microSv/h),MP-3(microSv/h),MP-4(microSv/h),MP-5(microSv/h),MP-6(microSv/h),MP-7(microSv/h),Wind Direction,Wind Velocity(m/s),Rain
2015/06/29,00:00,0.495,0.288,0.511,0.459,0.454,0.230,0.197,north-northeast,2.9,Yes
2015/06/29,00:10,0.498,0.289,0.512,0.463,0.450,0.228,0.199,north,3.5,Yes
2015/06/29,00:20,0.497,0.287,0.511,0.458,0.455,0.230,0.199,north,3.4,Yes
2015/06/29,00:30,0.499,0.289,0.513,0.463,0.452,0.229,0.198,north-northeast,5.4,Yes
2015/06/29,00:40,0.496,0.289,0.510,0.459,0.457,0.230,0.199,northeast,4.5,Yes
2015/06/29,00:50,0.498,0.287,0.512,0.464,0.451,0.228,0.198,northeast,4.6,Yes
2015/06/29,01:00,0.498,0.289,0.511,0.460,0.456,0.229,0.199,north-northeast,3.9,Yes
2015/06/29,01:10,0.498,0.288,0.512,0.463,0.452,0.228,0.198,north-northeast,4.8,Yes
2015/06/29,01:20,0.497,0.289,0.510,0.456,0.455,0.229,0.198,north-northeast,3.5,No
2015/06/29,01:30,0.496,0.287,0.512,0.463,0.453,0.228,0.199,north-northeast,2.9,Yes
2015/06/29,01:40,0.497,0.290,0.511,0.457,0.453,0.229,0.198,north-northeast,3.0,No
2015/06/29,01:50,0.496,0.287,0.513,0.462,0.451,0.226,0.198,north,3.1,Yes
2015/06/29,02:00,0.497,0.289,0.508,0.461,0.451,0.228,0.198,north-northwest,3.3,Yes
2015/06/29,02:10,0.497,0.287,0.513,0.461,0.453,0.228,0.199,north-northwest,3.6,Yes
2015/06/29,02:20,0.498,0.290,0.509,0.459,0.451,0.228,0.199,north,3.9,Yes
2015/06/29,02:30,0.496,0.288,0.512,0.462,0.456,0.227,0.199,north-northwest,3.5,Yes
2015/06/29,02:40,0.499,0.289,0.508,0.460,0.450,0.227,0.199,north-northwest,3.6,Yes
2015/06/29,02:50,0.495,0.289,0.513,0.461,0.455,0.228,0.198,north-northwest,3.8,Yes
2015/06/29,03:00,0.500,0.288,0.507,0.461,0.451,0.227,0.199,north-northwest,3.9,No
2015/06/29,03:10,0.495,0.290,0.513,0.461,0.455,0.228,0.198,north,3.9,No
2015/06/29,03:20,0.498,0.286,0.509,0.461,0.452,0.227,0.199,north-northwest,4.0,No
2015/06/29,03:30,0.494,0.290,0.514,0.461,0.454,0.228,0.199,north-northwest,3.3,Yes
2015/06/29,03:40,0.497,0.289,0.508,0.462,0.451,0.227,0.200,north-northwest,3.6,Yes
2015/06/29,03:50,0.495,0.289,0.514,0.458,0.456,0.228,0.199,north,3.9,Yes
2015/06/29,04:00,0.500,0.287,0.509,0.461,0.451,0.227,0.198,north,3.6,No
2015/06/29,04:10,0.494,0.289,0.512,0.458,0.454,0.229,0.199,north-northwest,3.3,No
2015/06/29,04:20,0.500,0.288,0.509,0.463,0.452,0.228,0.199,north-northwest,3.6,No
2015/06/29,04:30,0.495,0.290,0.512,0.460,0.454,0.227,0.198,north-northwest,2.8,Yes
2015/06/29,04:40,0.502,0.287,0.508,0.461,0.452,0.227,0.199,north-northwest,2.9,Yes
2015/06/29,04:50,0.496,0.289,0.512,0.459,0.452,0.229,0.199,north-northwest,2.5,Yes
2015/06/29,05:00,0.498,0.289,0.510,0.462,0.453,0.228,0.198,north-northwest,2.4,No
2015/06/29,05:10,0.496,0.289,0.511,0.458,0.452,0.228,0.199,north-northwest,2.3,No
2015/06/29,05:20,0.500,0.288,0.508,0.462,0.453,0.228,0.198,north,2.5,No
2015/06/29,05:30,0.494,0.288,0.515,0.459,0.452,0.228,0.199,north,2.1,No
2015/06/29,05:40,0.498,0.289,0.509,0.463,0.454,0.227,0.199,north,1.4,No
2015/06/29,05:50,0.494,0.288,0.515,0.458,0.451,0.229,0.198,north,1.5,No
2015/06/29,06:00,0.499,0.289,0.509,0.463,0.452,0.228,0.200,north,1.5,No
2015/06/29,06:10,0.495,0.288,0.513,0.459,0.453,0.228,0.198,north-northeast,1.0,No
2015/06/29,06:20,0.500,0.288,0.509,0.463,0.451,0.228,0.199,north-northwest,0.8,No
2015/06/29,06:30,0.495,0.289,0.514,0.458,0.452,0.228,0.197,north-northwest,0.9,No
2015/06/29,06:40,0.498,0.287,0.510,0.462,0.449,0.228,0.199,-,CALM,No
2015/06/29,06:50,0.495,0.288,0.511,0.459,0.456,0.227,0.198,east-southeast,1.4,No
2015/06/29,07:00,0.497,0.286,0.511,0.462,0.446,0.228,0.199,east,1.2,No
2015/06/29,07:10,0.498,0.289,0.511,0.460,0.455,0.229,0.198,northeast,0.7,No
2015/06/29,07:20,0.495,0.288,0.513,0.459,0.451,0.229,0.199,east-southeast,1.3,No
2015/06/29,07:30,0.500,0.287,0.508,0.462,0.453,0.227,0.199,east-northeast,1.0,No
2015/06/29,07:40,0.496,0.288,0.513,0.459,0.456,0.229,0.199,southeast,0.6,No
2015/06/29,07:50,0.500,0.287,0.508,0.463,0.449,0.227,0.200,east-northeast,1.4,No
2015/06/29,08:00,0.498,0.289,0.515,0.457,0.456,0.228,0.198,southeast,1.3,No
2015/06/29,08:10,0.497,0.289,0.510,0.463,0.452,0.229,0.199,east-southeast,1.8,No
2015/06/29,08:20,0.500,0.288,0.511,0.461,0.453,0.228,0.199,east-southeast,1.6,No
2015/06/29,08:30,0.493,0.288,0.515,0.460,0.455,0.230,0.198,southeast,1.6,No
2015/06/29,08:40,0.498,0.290,0.508,0.465,0.449,0.227,0.200,east-southeast,1.7,No
2015/06/29,08:50,0.498,0.288,0.515,0.458,0.457,0.229,0.201,southeast,2.1,No
2015/06/29,09:00,0.496,0.291,0.510,0.466,0.455,0.228,0.199,south-southeast,2.0,No
2015/06/29,09:10,0.501,0.288,0.513,0.462,0.450,0.229,0.200,southeast,1.9,No
2015/06/29,09:20,0.496,0.288,0.514,0.463,0.457,0.229,0.200,southeast,1.9,No
2015/06/29,09:30,0.497,0.290,0.509,0.466,0.454,0.228,0.199,south-southeast,2.2,No
2015/06/29,09:40,0.500,0.289,0.516,0.460,0.451,0.229,0.201,south,2.5,No
2015/06/29,09:50,0.496,0.286,0.512,0.463,0.458,0.229,0.200,south-southeast,3.0,No
2015/06/29,10:00,0.494,0.290,0.510,0.465,0.454,0.229,0.200,south-southeast,3.9,No
2015/06/29,10:10,0.503,0.291,0.517,0.460,0.451,0.229,0.199,south-southeast,4.1,No
2015/06/29,10:20,0.499,0.289,0.513,0.460,0.454,0.230,0.202,south-southeast,4.2,No
2015/06/29,10:30,0.496,0.287,0.508,0.467,0.458,0.230,0.199,south,3.6,No
2015/06/29,10:40,0.497,0.287,0.515,0.462,0.455,0.229,0.198,south-southeast,4.6,No
2015/06/29,10:50,0.504,0.292,0.513,0.460,0.452,0.230,0.199,south-southeast,4.4,No
2015/06/29,11:00,0.500,0.290,0.509,0.457,0.454,0.231,0.201,south,4.3,No
2015/06/29,11:10,0.497,0.289,0.510,0.465,0.459,0.230,0.200,south,5.2,No
2015/06/29,11:20,0.496,0.289,0.518,0.466,0.455,0.230,0.199,south,5.7,No
2015/06/29,11:30,0.503,0.289,0.515,0.463,0.454,0.231,0.199,south-southeast,5.0,No
2015/06/29,11:40,0.502,0.292,0.511,0.461,0.454,0.230,0.201,south,5.6,No
2015/06/29,11:50,0.498,0.290,0.508,0.462,0.460,0.231,0.201,south,5.6,No
2015/06/29,12:00,0.496,0.289,0.516,0.469,0.459,0.231,0.200,south-southeast,5.5,No
2015/06/29,12:10,0.495,0.291,0.517,0.465,0.456,0.231,0.200,south,4.7,No
2015/06/29,12:20,0.504,0.292,0.514,0.464,0.452,0.231,0.203,south-southeast,6.1,No
2015/06/29,12:30,0.502,0.290,0.510,0.462,0.460,0.230,0.202,south-southeast,6.0,No
2015/06/29,12:40,0.501,0.289,0.513,0.468,0.462,0.230,0.199,south,6.4,No
2015/06/29,12:50,0.496,0.293,0.518,0.467,0.456,0.232,0.200,south,6.9,No
2015/06/29,13:00,0.502,0.292,0.516,0.465,0.453,0.232,0.202,south,6.5,No
2015/06/29,13:10,0.505,0.288,0.513,0.465,0.458,0.232,0.201,south,7.8,No
2015/06/29,13:20,0.501,0.289,0.513,0.462,0.463,0.231,0.200,south,7.6,No
2015/06/29,13:30,0.499,0.293,0.512,0.468,0.460,0.233,0.201,south,6.9,No
2015/06/29,13:40,0.507,0.294,0.517,0.471,0.455,0.233,0.202,south,7.6,No
2015/06/29,13:50,0.505,0.290,0.518,0.468,0.454,0.233,0.202,south,7.1,No
2015/06/29,14:00,0.501,0.289,0.516,0.464,0.462,0.232,0.200,south-southeast,7.2,No
2015/06/29,14:10,0.498,0.292,0.515,0.463,0.461,0.231,0.202,south,7.2,No
2015/06/29,14:20,0.500,0.293,0.515,0.468,0.458,0.231,0.203,south,6.6,No
2015/06/29,14:30,0.508,0.291,0.513,0.470,0.455,0.233,0.201,south-southeast,6.9,No
2015/06/29,14:40,0.504,0.290,0.514,0.468,0.455,0.234,0.201,south-southeast,7.1,No
2015/06/29,14:50,0.501,0.291,0.521,0.466,0.463,0.232,0.202,south,7.8,No
2015/06/29,15:00,0.499,0.294,0.519,0.468,0.460,0.232,0.203,south-southeast,7.3,No
2015/06/29,15:10,0.508,0.292,0.517,0.474,0.458,0.233,0.201,south,8.0,No
2015/06/29,15:20,0.506,0.290,0.514,0.468,0.455,0.233,0.202,south,7.8,No
2015/06/29,15:30,0.501,0.292,0.514,0.473,0.458,0.234,0.203,south-southeast,6.7,No
2015/06/29,15:40,0.507,0.294,0.521,0.473,0.463,0.232,0.202,south,8.1,No
2015/06/29,15:50,0.504,0.292,0.519,0.468,0.461,0.232,0.201,south-southeast,7.2,No
2015/06/29,16:00,0.503,0.291,0.516,0.473,0.457,0.234,0.203,south,8.3,No
2015/06/29,16:10,0.508,0.294,0.520,0.468,0.455,0.233,0.203,south,8.5,No
2015/06/29,16:20,0.505,0.291,0.523,0.470,0.463,0.231,0.203,south,9.3,No
2015/06/29,16:30,0.504,0.294,0.519,0.471,0.462,0.233,0.202,south,9.0,No
2015/06/29,16:40,0.509,0.294,0.525,0.467,0.459,0.233,0.204,south,8.7,No
2015/06/29,16:50,0.505,0.293,0.520,0.474,0.456,0.233,0.203,south,8.5,No
2015/06/29,17:00,0.501,0.293,0.521,0.470,0.459,0.234,0.203,south,8.2,No
2015/06/29,17:10,0.508,0.292,0.524,0.470,0.462,0.233,0.204,south,9.0,No
2015/06/29,17:20,0.505,0.294,0.517,0.472,0.459,0.232,0.203,south,8.1,No
2015/06/29,17:30,0.503,0.291,0.525,0.470,0.457,0.233,0.203,south,8.8,No
2015/06/29,17:40,0.508,0.294,0.520,0.475,0.466,0.234,0.203,south,8.9,No
2015/06/29,17:50,0.504,0.294,0.517,0.469,0.461,0.233,0.203,south,9.3,No
2015/06/29,18:00,0.509,0.292,0.522,0.473,0.461,0.234,0.203,south,8.5,No
2015/06/29,18:10,0.508,0.294,0.516,0.469,0.465,0.233,0.204,south,8.8,No
2015/06/29,18:20,0.501,0.292,0.524,0.473,0.460,0.235,0.202,south,8.5,Yes
2015/06/29,18:30,0.508,0.294,0.520,0.470,0.465,0.233,0.204,south,8.5,No
2015/06/29,18:40,0.503,0.291,0.521,0.471,0.459,0.233,0.203,south,8.9,No
2015/06/29,18:50,0.508,0.294,0.519,0.474,0.465,0.234,0.203,south,8.6,No
2015/06/29,19:00,0.505,0.292,0.520,0.473,0.459,0.234,0.202,south,8.5,No
2015/06/29,19:10,0.505,0.292,0.523,0.473,0.464,0.234,0.205,south,8.3,No
2015/06/29,19:20,0.506,0.292,0.519,0.470,0.462,0.232,0.203,south,9.4,No
2015/06/29,19:30,0.502,0.293,0.523,0.473,0.462,0.234,0.203,south,8.3,No
2015/06/29,19:40,0.508,0.292,0.516,0.468,0.463,0.233,0.202,south,7.3,No
2015/06/29,19:50,0.503,0.293,0.523,0.473,0.461,0.233,0.204,south,8.3,No
2015/06/29,20:00,0.507,0.293,0.519,0.470,0.463,0.233,0.203,south,8.8,No
2015/06/29,20:10,0.503,0.293,0.521,0.471,0.458,0.234,0.204,south,8.7,No
2015/06/29,20:20,0.506,0.292,0.521,0.471,0.463,0.234,0.202,south-southwest,7.7,No
2015/06/29,20:30,0.508,0.292,0.521,0.471,0.456,0.234,0.204,south-southwest,7.5,No
2015/06/29,20:40,0.504,0.293,0.522,0.473,0.463,0.235,0.203,south,6.6,No
2015/06/29,20:50,0.508,0.292,0.520,0.470,0.458,0.234,0.204,south,7.5,No
2015/06/29,21:00,0.504,0.293,0.523,0.474,0.462,0.234,0.204,south,8.1,No
2015/06/29,21:10,0.507,0.292,0.517,0.469,0.460,0.234,0.204,south,9.1,No
2015/06/29,21:20,0.504,0.293,0.526,0.472,0.462,0.233,0.203,south,10.0,No
2015/06/29,21:30,0.508,0.292,0.518,0.469,0.460,0.233,0.204,south-southwest,10.7,No
2015/06/29,21:40,0.503,0.293,0.522,0.473,0.462,0.234,0.202,south-southwest,11.2,No
2015/06/29,21:50,0.507,0.292,0.519,0.470,0.458,0.233,0.202,south-southwest,11.1,No
2015/06/29,22:00,0.506,0.294,0.522,0.473,0.461,0.234,0.204,south-southwest,9.9,No
2015/06/29,22:10,0.505,0.292,0.520,0.471,0.459,0.233,0.202,south-southwest,10.6,No
2015/06/29,22:20,0.508,0.294,0.521,0.470,0.460,0.234,0.204,south,9.8,No
2015/06/29,22:30,0.502,0.293,0.521,0.472,0.459,0.233,0.203,south-southwest,11.7,No
2015/06/29,22:40,0.508,0.292,0.519,0.469,0.460,0.234,0.205,south,10.2,No
2015/06/29,22:50,0.502,0.291,0.523,0.473,0.463,0.234,0.203,south-southwest,10.0,No
2015/06/29,23:00,0.509,0.294,0.518,0.469,0.459,0.234,0.205,south-southwest,9.1,No
2015/06/29,23:10,0.505,0.292,0.524,0.473,0.462,0.235,0.203,south,9.8,No
2015/06/29,23:20,0.507,0.293,0.519,0.469,0.459,0.233,0.205,south-southwest,10.7,No
2015/06/29,23:30,0.504,0.291,0.523,0.474,0.463,0.235,0.203,south-southwest,10.8,No
2015/06/29,23:40,0.507,0.293,0.518,0.468,0.459,0.232,0.204,south-southwest,11.6,No
2015/06/29,23:50,0.508,0.291,0.524,0.476,0.462,0.235,0.203,south-southwest,10.8,No
